[[{"header":{"parameterUnit":"m.s-1","parameterCategory":1,"la1":30.2991,"la2":30.254,"lo1":-89.0895,"lo2":-89.0444,"dy":0.0017,"dx":0.0017,"nx":28,"ny":28,"refTime":"2024-04-03T21:00:00:Z","depth":0,"parameterNumber":2,"parameterNumberName":"U-component_of_WINDS"},"data":[0,0,0,0,0,0,0,0,0,0,0,0,0,0,0,0,0,0,0,0,0,0,0,0,0,0,0,0,0,0,0,0,0,0,0,0,0,0,0,0,0,0,0,0,0,0,0,0,0,0,0,0,0,0,0,0,0,0,5.1872,5.1873,0,5.1959,5.196,5.1961,5.1951,5.195,5.1949,5.1947,5.2038,5.2042,5.2045,0,0,0,0,0,0,0,0,0,0,0,0,0,5.1698,5.1701,5.1872,5.1873,5.1874,5.1959,5.196,5.1961,5.1952,5.195,5.1948,5.1947,5.2037,5.2041,5.2046,0,0,0,0,0,0,0,0,0,0,0,0,0,5.1778,5.1702,5.1871,5.1879,5.1881,5.1959,5.196,5.1962,5.1952,5.195,5.1948,5.1946,5.2035,5.2041,5.2046,5.2123,0,0,5.2063,5.2066,0,0,0,0,0,0,0,0,5.1774,5.1785,5.1877,5.1879,5.1881,5.1942,5.1932,5.2016,5.1952,5.1925,5.1947,5.1945,5.2008,5.2016,5.2037,5.2127,5.2131,5.2064,5.2067,5.2069,5.2071,0,0,0,0,0,0,0,5.1768,5.1781,5.1906,5.1878,5.1881,5.1879,5.1888,5.1948,5.1977,5.1927,5.1927,5.1937,5.2008,5.2031,5.2039,5.2132,5.2064,5.2069,5.2072,5.2074,5.2292,5.2294,0,0,0,0,0,0,5.1761,5.1776,5.1903,5.1909,5.1821,5.1884,5.1894,5.1925,5.1976,5.1982,5.1939,5.1936,5.2023,5.2032,5.2042,5.2136,5.2069,5.2075,5.2078,5.229,5.2293,5.2295,0,0,0,0,0,0,5.1757,5.1772,5.19,5.1843,5.1859,5.1889,5.1923,5.1927,5.195,5.1985,5.199,5.1957,5.2021,5.2034,5.2103,5.2139,5.2077,5.2082,5.2287,5.229,5.2294,5.2325,0,0,0,0,0,0,5.1752,5.1771,5.1799,5.1843,5.1862,5.1959,5.1926,5.1931,5.196,5.1957,5.2003,5.2009,5.2021,5.2095,5.2109,5.2146,5.2087,5.2284,5.2288,5.2293,5.2321,5.2329,5.2336,0,0,0,0,0,5.1746,5.1804,5.1801,5.1816,5.1898,5.1961,5.1972,5.1984,5.1962,5.1992,5.2015,5.2007,5.2133,5.2102,5.2117,5.2157,5.2281,5.2287,5.2292,5.2317,5.2327,5.2336,0,0,0,0,0,0,5.1764,5.181,5.1807,5.1881,5.1917,5.1959,5.1997,5.1994,5.2037,5.2033,5.2047,5.2057,5.2127,5.2149,5.2113,5.2235,5.2204,5.2213,5.2218,5.2228,5.2236,5.2229,5.2091,0,0,0,0,0,5.1776,5.1823,5.1861,5.1923,5.1941,5.1966,5.1994,5.2,5.2038,5.2054,5.2082,5.2119,5.2168,5.2199,5.2245,5.2324,5.2335,5.2359,5.2366,5.2373,5.238,5.2426,5.2437,5.2313,5.2313,5.2313,0,0,5.1802,5.1834,5.1862,5.1927,5.1956,5.2005,5.1979,5.2031,5.2068,5.2062,5.2129,5.2151,5.2194,5.2269,5.2303,5.2289,5.2417,5.238,5.2384,5.2389,5.2432,5.2444,5.2455,5.2317,5.2316,5.2316,0,0,5.1876,5.1903,5.1959,5.1989,5.2033,5.2049,5.2063,5.2106,5.212,5.2188,5.2185,5.2229,5.2311,5.2343,5.237,5.2457,5.2453,5.2472,5.2513,5.2557,5.2567,5.2575,5.2608,5.262,5.248,5.248,5.248,0,5.1903,5.1976,5.1988,5.2042,5.2071,5.2068,5.2125,5.2154,5.2211,5.2232,5.2215,5.2319,5.2348,5.2431,5.2453,5.2474,5.2491,5.2467,5.2564,5.2573,5.2581,5.2613,5.2625,5.2482,5.2482,5.2481,5.2481,0,5.2009,5.206,5.2099,5.2155,5.2189,5.2244,5.2265,5.2298,5.2302,5.2321,5.2391,5.2426,5.248,5.25,5.2504,5.2584,5.2574,5.2561,5.2531,5.2595,5.2625,5.2637,5.2485,5.2484,5.2483,5.2483,0,0,5.2095,5.2157,5.2172,5.2198,5.2247,5.2287,5.2343,5.2396,5.2425,5.2465,5.2513,5.2584,5.2572,5.2602,5.261,5.2649,5.2718,5.2631,5.2632,5.2647,5.2811,5.2822,5.2835,5.2715,5.2718,5.272,5.2808,0,5.2174,5.2272,5.2285,5.2373,5.2421,5.242,5.2469,5.2505,5.2524,5.2569,5.259,5.2641,5.262,5.2639,5.2677,5.2702,5.2752,5.2695,5.2762,5.2764,5.2751,5.285,5.2861,5.2943,5.2819,5.2821,5.2823,0,5.2279,5.2322,5.2415,5.246,5.248,5.2524,5.2575,5.2617,5.2658,5.267,5.2705,5.2709,5.2768,5.2735,5.2818,5.278,5.2808,5.2824,5.2827,5.2835,5.2797,5.2861,5.2969,5.2982,5.2841,5.284,5.2838,0,5.2334,5.2416,5.2482,5.2504,5.2558,5.2589,5.2613,5.2652,5.2684,5.2728,5.2749,5.28,5.2828,5.2868,5.2886,5.286,5.2968,5.2937,5.298,5.298,5.3003,5.3002,5.3118,5.302,5.302,5.302,5.3019,0,5.2422,5.2479,5.2508,5.2549,5.2613,5.2629,5.2692,5.2715,5.2751,5.2797,5.2799,5.2842,5.2863,5.291,5.2924,5.2991,5.3004,5.3016,5.3019,5.3016,5.3015,5.3035,5.303,5.3023,5.3022,5.3022,5.3021,0,5.2494,5.2516,5.2589,5.2634,5.2646,5.2692,5.2731,5.2771,5.2791,5.2849,5.2864,5.2895,5.295,5.2972,5.304,5.305,5.3128,5.3126,5.3114,5.3115,5.3158,5.3154,5.3292,5.3311,5.32,5.3201,5.3202,0,5.2549,5.2593,5.2643,5.2674,5.2699,5.2749,5.2782,5.2799,5.2833,5.2885,5.292,5.2975,5.302,5.311,5.3139,5.3191,5.3191,5.3236,5.3199,5.3196,5.3194,5.3191,5.3196,5.3243,5.3244,5.3245,5.3246,0,5.2645,5.2654,5.27,5.2752,5.2791,5.2832,5.2872,5.2897,5.2921,5.2959,5.3016,5.3051,5.3121,5.3177,5.3231,5.3257,5.3256,5.3257,5.327,5.3268,5.326,5.3266,5.3133,5.3254,5.3253,5.3253,5.3252,5.3252,5.2711,5.2751,5.2793,5.2845,5.2877,5.2915,5.2956,5.2981,5.3028,5.3087,5.3094,5.3156,5.3198,5.3271,5.3299,5.3348,5.3337,5.3355,5.336,5.3365,5.3369,5.3251,5.3358,5.3358,5.3358,5.3358,5.3357,0,5.2808,5.2835,5.2883,5.294,5.2981,5.2977,5.3021,5.3057,5.3111,5.315,5.3195,5.3262,5.3316,5.335,5.3405,5.3438,5.3439,5.3452,5.345,5.3457,5.3375,5.3359,5.3451,5.3451,5.345,5.345,5.345,5.345,5.2863,5.2931,5.2945,5.3029,5.3056,5.3116,5.3142,5.3178,5.321,5.3284,5.3329,5.3351,5.3389,5.3447,5.3497,5.3506,5.3526,5.3541,5.3548,5.3472,5.3462,5.3453,5.3438,5.3545,5.3545,5.3626,5.3627,5.3627]},{"header":{"parameterUnit":"m.s-1","parameterCategory":1,"la1":30.2991,"la2":30.254,"lo1":-89.0895,"lo2":-89.0444,"dy":0.0017,"dx":0.0017,"nx":28,"ny":28,"refTime":"2024-04-03T21:00:00:Z","depth":0,"parameterNumber":3,"parameterNumberName":"V-component_of_WINDS"},"data":[0,0,0,0,0,0,0,0,0,0,0,0,0,0,0,0,0,0,0,0,0,0,0,0,0,0,0,0,0,0,0,0,0,0,0,0,0,0,0,0,0,0,0,0,0,0,0,0,0,0,0,0,0,0,0,0,0,0,-1.2989,-1.2989,0,-1.2989,-1.2989,-1.2989,-1.3019,-1.302,-1.302,-1.3021,-1.3019,-1.3018,-1.3017,0,0,0,0,0,0,0,0,0,0,0,0,0,-1.3015,-1.3014,-1.2989,-1.2989,-1.2989,-1.2989,-1.2989,-1.2989,-1.3019,-1.302,-1.3021,-1.3021,-1.3019,-1.3018,-1.3017,0,0,0,0,0,0,0,0,0,0,0,0,0,-1.3008,-1.3014,-1.2989,-1.3004,-1.3005,-1.2989,-1.2989,-1.2989,-1.3018,-1.302,-1.3021,-1.3022,-1.3019,-1.3018,-1.3017,-1.2985,0,0,-1.3013,-1.3012,0,0,0,0,0,0,0,0,-1.3008,-1.3007,-1.3002,-1.3003,-1.3004,-1.3005,-1.2997,-1.2988,-1.3018,-1.3013,-1.3021,-1.3022,-1.3013,-1.3012,-1.301,-1.2985,-1.2985,-1.3013,-1.3012,-1.3012,-1.3011,0,0,0,0,0,0,0,-1.3009,-1.3007,-1.2989,-1.3001,-1.3003,-1.301,-1.3011,-1.2995,-1.3006,-1.3014,-1.3016,-1.3016,-1.3014,-1.3011,-1.301,-1.2985,-1.3013,-1.3012,-1.3011,-1.3011,-1.2938,-1.2937,0,0,0,0,0,0,-1.3007,-1.3007,-1.2989,-1.2989,-1.3009,-1.3009,-1.3009,-1.3004,-1.3007,-1.3008,-1.3015,-1.3017,-1.3012,-1.3011,-1.301,-1.2975,-1.3012,-1.3011,-1.301,-1.294,-1.2938,-1.2937,0,0,0,0,0,0,-1.3008,-1.3005,-1.2989,-1.2999,-1.2997,-1.3007,-1.3,-1.3003,-1.3,-1.3007,-1.3009,-1.3009,-1.3013,-1.3011,-1.2992,-1.2976,-1.301,-1.3009,-1.2941,-1.2939,-1.2938,-1.2905,0,0,0,0,0,0,-1.3008,-1.3005,-1.2993,-1.2998,-1.2996,-1.2971,-1.2999,-1.3002,-1.2998,-1.3001,-1.3003,-1.3004,-1.3014,-1.2994,-1.2991,-1.2975,-1.3008,-1.2943,-1.294,-1.2938,-1.2907,-1.2902,-1.2898,0,0,0,0,0,-1.3009,-1.2983,-1.2992,-1.299,-1.2982,-1.297,-1.2969,-1.2981,-1.2996,-1.2985,-1.299,-1.3004,-1.2978,-1.2992,-1.2989,-1.2972,-1.2944,-1.2941,-1.2938,-1.291,-1.2903,-1.2898,0,0,0,0,0,0,-1.2974,-1.2983,-1.2994,-1.2969,-1.2969,-1.2975,-1.296,-1.2973,-1.2968,-1.2971,-1.2986,-1.2986,-1.2965,-1.2966,-1.2981,-1.2943,-1.2964,-1.296,-1.2943,-1.2937,-1.2932,-1.2932,-1.3007,0,0,0,0,0,-1.2963,-1.2953,-1.2962,-1.2939,-1.2938,-1.2949,-1.2945,-1.2955,-1.2954,-1.2954,-1.2958,-1.2957,-1.2949,-1.2943,-1.2935,-1.2908,-1.291,-1.2895,-1.289,-1.2886,-1.2883,-1.2872,-1.2866,-1.2928,-1.2928,-1.2928,0,0,-1.2941,-1.2945,-1.2937,-1.2932,-1.2933,-1.2923,-1.2949,-1.2936,-1.2929,-1.2952,-1.2935,-1.2938,-1.2938,-1.2915,-1.2905,-1.2915,-1.2867,-1.2883,-1.288,-1.2879,-1.2868,-1.2862,-1.2857,-1.2926,-1.2927,-1.2927,0,0,-1.2895,-1.2897,-1.2879,-1.288,-1.2882,-1.289,-1.2886,-1.2891,-1.2894,-1.2878,-1.2896,-1.2887,-1.2872,-1.2872,-1.287,-1.2829,-1.2842,-1.2826,-1.28,-1.2789,-1.2784,-1.2779,-1.2766,-1.2761,-1.2823,-1.2823,-1.2823,0,-1.2867,-1.2852,-1.2868,-1.2855,-1.2853,-1.2875,-1.2858,-1.2858,-1.2857,-1.2855,-1.2867,-1.2851,-1.2852,-1.2831,-1.2821,-1.2818,-1.2815,-1.2825,-1.2783,-1.2779,-1.2775,-1.2763,-1.2758,-1.2821,-1.2821,-1.2821,-1.2821,0,-1.2819,-1.2808,-1.2794,-1.2794,-1.2791,-1.2775,-1.2789,-1.2783,-1.2794,-1.2801,-1.2785,-1.2788,-1.2783,-1.2779,-1.2788,-1.276,-1.2767,-1.2781,-1.2802,-1.2767,-1.2756,-1.2751,-1.2818,-1.2819,-1.2819,-1.282,0,0,-1.2748,-1.276,-1.2755,-1.2757,-1.2762,-1.2754,-1.2741,-1.2738,-1.2733,-1.2732,-1.2722,-1.2711,-1.2725,-1.2723,-1.2733,-1.2723,-1.2692,-1.2738,-1.2739,-1.2731,-1.2663,-1.2653,-1.2648,-1.2702,-1.2701,-1.27,-1.2664,0,-1.2706,-1.2684,-1.2699,-1.2675,-1.2667,-1.269,-1.2679,-1.2681,-1.2688,-1.2682,-1.269,-1.2682,-1.27,-1.27,-1.2691,-1.2698,-1.2679,-1.27,-1.2693,-1.2692,-1.2693,-1.2641,-1.263,-1.2596,-1.2659,-1.2659,-1.2658,0,-1.2652,-1.2651,-1.2627,-1.2637,-1.2634,-1.2624,-1.2624,-1.2618,-1.2621,-1.2627,-1.2627,-1.2641,-1.2629,-1.265,-1.2635,-1.265,-1.2648,-1.2651,-1.265,-1.265,-1.2673,-1.2641,-1.2585,-1.258,-1.2651,-1.2651,-1.2652,0,-1.2606,-1.2598,-1.2584,-1.2584,-1.2595,-1.2587,-1.2591,-1.2597,-1.2595,-1.2594,-1.2594,-1.2591,-1.259,-1.2588,-1.2602,-1.2616,-1.2586,-1.2607,-1.2591,-1.2591,-1.2584,-1.2584,-1.2528,-1.2581,-1.2581,-1.2581,-1.2582,0,-1.2556,-1.2541,-1.2564,-1.2554,-1.2539,-1.2556,-1.254,-1.2547,-1.2552,-1.2545,-1.2564,-1.2557,-1.2575,-1.257,-1.258,-1.2568,-1.2567,-1.2572,-1.2575,-1.2571,-1.257,-1.2569,-1.2573,-1.258,-1.258,-1.2581,-1.2581,0,-1.2501,-1.2516,-1.2502,-1.2514,-1.2517,-1.2505,-1.2515,-1.2508,-1.2517,-1.2509,-1.2508,-1.2522,-1.2518,-1.2531,-1.2528,-1.2536,-1.2518,-1.2524,-1.2517,-1.2519,-1.2503,-1.2505,-1.2445,-1.2438,-1.2495,-1.2494,-1.2494,0,-1.2469,-1.2459,-1.2471,-1.2468,-1.2472,-1.2467,-1.2466,-1.2484,-1.2482,-1.2487,-1.248,-1.2477,-1.2476,-1.2469,-1.2479,-1.2478,-1.2485,-1.2464,-1.2485,-1.2482,-1.2487,-1.2487,-1.2487,-1.246,-1.2459,-1.2459,-1.2458,0,-1.2412,-1.242,-1.2418,-1.2419,-1.2418,-1.242,-1.2422,-1.2419,-1.2439,-1.2436,-1.2433,-1.2432,-1.2431,-1.2429,-1.2431,-1.2435,-1.245,-1.2452,-1.2448,-1.2444,-1.2441,-1.2444,-1.2506,-1.2453,-1.2453,-1.2454,-1.2454,-1.2454,-1.2368,-1.2361,-1.2369,-1.2367,-1.2371,-1.2374,-1.2369,-1.2379,-1.2377,-1.2378,-1.2389,-1.2384,-1.2391,-1.2395,-1.2398,-1.2395,-1.2405,-1.2399,-1.2398,-1.2397,-1.2395,-1.2441,-1.2395,-1.2396,-1.2396,-1.2396,-1.2396,0,-1.2313,-1.232,-1.2318,-1.2323,-1.2322,-1.2337,-1.2342,-1.234,-1.2336,-1.2342,-1.2341,-1.2339,-1.2338,-1.2349,-1.235,-1.2346,-1.2353,-1.2345,-1.2346,-1.2347,-1.2385,-1.2389,-1.234,-1.234,-1.234,-1.234,-1.234,-1.234,-1.2284,-1.2273,-1.2283,-1.2275,-1.2282,-1.2279,-1.228,-1.2284,-1.2289,-1.2286,-1.2286,-1.2294,-1.2302,-1.2304,-1.2304,-1.2308,-1.2308,-1.2298,-1.2304,-1.2339,-1.2344,-1.235,-1.2353,-1.2298,-1.2298,-1.2267,-1.2267,-1.2266]}]]